Location: ??? ??? ????
(30.7125°N, 60.4306°E)
Time: 01:37:53
(UTC+00:00)

Daily predictions for brighter satellites

Satellite Brightness Start Highest point End
(mag) Time Altitude Azimuth Time Altitude Azimuth Time Altitude Azimuth
deb Chang Zheng 4 4.5 00:02:45 10° NNE 00:06:53 47° E 00:10:57 10° S
Yuri Rocket 3.3 00:10:55 48° SSW 00:11:30 52° S 00:16:13 10° E
USA 32 3.9 00:07:57 10° N 00:13:10 66° W 00:18:21 10° S
SJ-6F 4.5 00:12:23 10° NNE 00:16:28 76° ESE 00:20:06 13° S
Cosmos 1536 2.7 00:13:28 10° NNW 00:17:30 67° W 00:21:31 10° S
Cosmos 540 Rocket 4.1 00:19:09 34° WNW 00:19:09 34° WNW 00:23:44 10° N
COSMOS 2428 3.5 00:13:39 10° S 00:19:10 53° ESE 00:24:43 10° NNE
ATLAS 2AS CENTAUR R/B 3.4 00:18:04 10° NNW 00:25:11 56° ENE 00:31:41 10° SE
Cosmos 2333 Rocket 2.2 00:22:24 10° SSW 00:28:09 85° ESE 00:33:57 10° NNE
ERS-2 1.9 00:24:38 10° S 00:28:17 82° WSW 00:31:57 10° NNW
Gbstr 26 Del rocket 4.2 00:21:53 10° NW 00:29:49 79° SW 00:36:35 10° SE
CZ-4B R/B 2.4 00:26:56 10° SSE 00:29:56 45° ENE 00:33:02 10° N
USA 234 4.1 00:25:00 10° ESE 00:31:13 48° NE 00:37:26 10° NNW
Cosmos 2173 Rocket 3.9 00:25:07 10° N 00:31:28 73° W 00:37:48 10° S
Meteor 2-20 Rocket 4.4 00:26:02 10° S 00:32:11 89° W 00:38:20 10° N
Cosmos 2322 3.7 00:28:39 16° SSW 00:33:10 64° WNW 00:38:47 10° NNE
Meteor 2-20 4.4 00:27:57 10° SSW 00:33:59 61° W 00:40:02 10° N
OAO 3 Rocket 3.4 00:34:34 26° SW 00:37:15 70° SSE 00:42:11 10° ENE
Landsat 5 4.3 00:33:47 10° SSW 00:37:47 32° W 00:41:48 10° NW
Cosmos 1733 Rocket 3.1 00:33:46 10° NNW 00:37:58 53° W 00:42:09 10° S
SL-19 R/B 4.4 00:34:45 10° N 00:38:48 51° WNW 00:41:10 19° SW
ADEOS 3.5 00:33:39 10° N 00:38:50 69° WNW 00:44:00 10° SSW
Cosmos 2242 Rocket 3.4 00:35:54 10° S 00:40:17 82° W 00:44:42 10° N
Delta 2 Rocket 3.3 00:41:53 25° SW 00:43:32 51° SSE 00:46:47 10° ENE
Cosmos 1743 2.6 00:40:51 10° N 00:44:39 85° W 00:48:27 10° S
Cosmos 1544 3.7 00:41:20 10° N 00:44:51 57° E 00:48:21 10° SSE
Cosmos 2360 Rocket 3.5 00:51:23 18° W 00:53:14 20° WNW 00:57:23 10° NNW
BREEZE-M DEB (TANK) 3.9 00:51:47 17° WSW 00:54:40 73° NW 01:06:42 10° NE
H-2A R/B 3.3 00:51:54 10° SW 00:55:08 20° W 00:58:27 10° NW
Meteor 1-19 Rocket 4.1 00:52:36 10° SSW 00:58:01 69° W 01:03:35 10° N
Meteor 1-18 Rocket 4.2 00:53:03 10° SSW 00:58:32 62° W 01:04:02 10° N
FENGYUN 3A 3.7 00:53:53 10° N 00:59:10 58° WNW 01:04:27 10° SSW
SAR-Lupe-4 3.4 00:58:15 10° S 01:01:48 70° WSW 01:05:23 10° NNW
ALOS 2.5 00:58:16 10° N 01:02:45 47° WNW 01:07:12 10° SSW
Cosmos 2016 Rocket 4.0 00:57:09 10° NNW 01:03:07 59° W 01:09:05 10° S
Chandra Rocket (1) 4.4 00:54:35 13° W 01:04:12 29° SW 01:08:44 10° SSE
Intercosmos 25 4.4 01:03:46 10° SW 01:07:20 23° W 01:10:11 10° NNW
Cosmos 1689 Rocket 2.5 01:05:28 10° SSE 01:08:22 64° ENE 01:11:19 10° N
CZ-2C R/B 4.0 01:05:13 10° NNW 01:08:30 17° WNW 01:11:46 10° WSW
Cosmos 2061 Rocket 4.2 01:03:07 10° NNW 01:09:22 54° W 01:15:32 10° SSW
FALCON 9 DEB 2.9 01:08:26 10° SW 01:11:35 68° NW 01:14:44 10° NE
Okean 3 4.3 01:08:09 10° S 01:12:21 58° E 01:16:34 10° NNE
Cosmos 372 Rocket 4.2 01:07:28 10° NNW 01:12:22 47° WSW 01:17:13 10° S
Cosmos 2233 Rocket 4.1 01:06:50 10° N 01:12:59 82° E 01:19:09 10° S
Cosmos 1975 2.7 01:12:48 10° N 01:16:49 82° W 01:20:46 10° S
Cosmos 1844 Rocket 2.8 01:12:31 10° NNW 01:18:01 54° WSW 01:23:31 10° S
Atlas Centaur 2 4.4 01:16:34 10° SSE 01:18:08 11° SE 01:19:47 10° ESE
FALCON 9 DEB 3.2 01:18:10 10° WSW 01:21:15 50° NW 01:24:20 10° NNE
Cosmos 1725 Rocket 4.2 01:19:49 10° NNW 01:25:39 46° W 01:31:29 10° SSW
Cosmos 1844 3.7 01:20:54 10° NNW 01:26:19 58° WSW 01:31:46 10° S
